Regional Weather Roundup
Issued by NWS

Home | Current Version | Previous Version | Text Only | Print | Product List | Glossary On
Versions: 1 2 3 4 5 6 7 8 9 10 11 12 13 14 15 16 17 18 19 20 21 22 23 24 25 26 27 28 29 30 31 32 33 34 35 36 37 38 39 40 41 42 43 44 45 46 47 48 49 50
000
ASUS43 KDMX 190407
RWRIA

WEATHER ROUNDUP FOR IOWA
NATIONAL WEATHER SERVICE DES MOINES IA
1000 PM CST THU DEC 18 2014

NOTE: "FAIR" INDICATES FEW OR NO CLOUDS BELOW 12,000 FEET WITH NO
SIGNIFICANT WEATHER AND/OR OBSTRUCTIONS TO VISIBILITY.

* - THESE STATIONS ARE NOT NWS STATIONS...THUS NOT UNDER NWS
QUALITY CONTROL.  THEY ALSO DO NOT REPORT WEATHER SUCH
AS PRECIPITATION OR FOG.

IAZ001>003-012>014-020>022-031>034-043>046-190500-
   NORTHWEST IOWA

CITY           SKY/WX    TMP DP  RH WIND       PRES   REMARKS
CARROLL *      CLOUDY    28  27  93 SE6       30.23S WCI  22
CHEROKEE *     CLOUDY    28  27  93 SE3       30.22R
DENISON *      CLOUDY    30  28  93 S6        30.20F WCI  24
LE MARS *      CLOUDY    30  27  86 S7        30.21R WCI  23
ORANGE CITY *  CLOUDY    28  25  86 S3        30.19S
SHELDON *      CLOUDY    27  27 100 S6        30.19R WCI  20
SIOUX CITY     CLOUDY    30  26  85 S9        30.22R WCI  22
SPENCER        CLOUDY    27  23  85 SE6       30.21S WCI  20
STORM LAKE *   CLOUDY    27  25  93 SE8       30.21S WCI  18
$$

IAZ055>058-069>071-079>083-090>094-190500-
   SOUTHWEST IOWA

CITY           SKY/WX    TMP DP  RH WIND       PRES   REMARKS
ATLANTIC *     CLOUDY    30  28  93 SE3       30.23S
AUDUBON *      CLEAR     28  23  80 S3        30.24R
CLARINDA *     CLOUDY    30  28  93 SE5       30.27S WCI  25
COUNCIL BLFS * CLOUDY    30  30 100 S6        30.22S WCI  24
CRESTON *      CLOUDY    28  28 100 SE6       30.24S WCI  22
HARLAN  *      CLOUDY    30  30 100 S5        30.26S WCI  25
LAMONI         CLOUDY    28  25  88 SE5       30.25R WCI  23
RED OAK *      CLOUDY    30  28  93 S5        30.25R WCI  25
SHENANDOAH *   CLOUDY    30  28  93 S5        30.26S WCI  25
$$

IAZ047>049-059>061-072>074-084-190500-
   CENTRAL IOWA

CITY           SKY/WX    TMP DP  RH WIND       PRES   REMARKS
AMES           CLOUDY    26  19  74 SE5       30.26S WCI  20
ANKENY *       CLOUDY    27  25  93 SE6       30.27S WCI  20
CHARITON *     CLOUDY    28  25  86 E3        30.26R
DES MOINES     CLOUDY    28  22  78 SE6       30.27R WCI  22
GRINNELL*      CLOUDY    25  21  86 CALM      30.28R
KNOXVILLE *    CLOUDY    27  23  86 CALM      30.26S
MARSHALLTOWN   CLOUDY    24  19  81 E3        30.27R
PELLA *        CLOUDY    27  25  93 CALM      30.29S
PERRY *        CLOUDY    28  25  86 SE5       30.25S WCI  23
$$

IAZ004>006-015-016-023>025-035-036-190500-
   NORTH CENTRAL IOWA

CITY           SKY/WX    TMP DP  RH WIND       PRES   REMARKS
ALGONA *       CLOUDY    25  23  93 SE6       30.24S WCI  18
CLARION *      CLOUDY    25  23  93 SE6       30.25R WCI  18
ESTHERVILLE    CLOUDY    24  20  84 S6        30.21S WCI  17
FORT DODGE *   CLOUDY    27  19  74 SE3       30.25R
MASON CITY     CLOUDY    23  18  81 S7        30.26S WCI  15
FOREST CITY *  CLOUDY    27  19  74 SE5       30.24S WCI  21
IOWA FALLS *   CLOUDY    25  19  80 SE5       30.27S WCI  19
$$

IAZ007>011-017>019-026>030-037>042-050>054-066-190500-
   NORTHEAST IOWA

CITY           SKY/WX    TMP DP  RH WIND       PRES   REMARKS
CEDAR RAPIDS   CLOUDY    24  20  84 CALM      30.27R
CHARLES CITY * CLOUDY    23  18  80 CALM      30.27S
CLINTON *      PTCLDY    16  12  86 CALM      30.31S
DECORAH *      CLOUDY    23  18  80 CALM      30.25S
DUBUQUE        CLOUDY    23  19  85 S3        30.26R
MONTICELLO *   CLEAR     18  18 100 CALM      30.28R
OELWEIN *      MOCLDY    19  16  86 NW3       30.27S
WATERLOO       CLOUDY    23  18  81 CALM      30.28R
$$

IAZ064-065-067-068-078-190500-
   EAST CENTRAL IOWA

CITY           SKY/WX    TMP DP  RH WIND       PRES   REMARKS
DAVENPORT      MOCLDY    20  15  81 CALM      30.29R
IOWA CITY      CLOUDY    26  19  74 CALM      30.31R
MT. PLEASANT * CLOUDY    27  25  93 CALM      30.29S FOG
MUSCATINE *    CLOUDY    28  19  69 CALM      30.31R
QUAD CITIES    PTCLDY    22  16  78 CALM      30.29S
$$

IAZ062-063-075>077-085>089-095>099-190500-
   SOUTHEAST IOWA

CITY           SKY/WX    TMP DP  RH WIND       PRES   REMARKS
BURLINGTON     CLOUDY    28  22  78 CALM      30.29R
FAIRFIELD *    CLOUDY    27  23  86 CALM      30.29R
FORT MADISON * CLOUDY    28  25  86 CALM      30.29S
KEOKUK *       CLOUDY    28  25  86 CALM      30.29S
OSKALOOSA *    CLOUDY    27  23  86 CALM      30.28S
CENTERVILLE *  CLOUDY    27  27 100 E3        30.28R
OTTUMWA        CLOUDY    26  22  84 CALM      30.27S
WASHINGTON *   CLOUDY    27  23  86 CALM      30.29S
$$

ABBREVIATIONS USED IN REMARKS
   TC - TEMPERATURES IN CELSIUS
  WCI - WIND CHILL INDEX
   HX - HEAT INDEX
  VSB - VISIBILITY
$$



USA.gov is the U.S. government's official web portal to all federal, state and local government web resources and services.